WX1NWA Weather Reports


Display with metric or nautical units.
time (UTC)temp
F
wind
direction
speed
MPH
gust
MPH
rain 1hr
in
rain 24hr
in
rain mn
in
humidity
%
barometer
mb
20260505124811 57 208 5.0 6.0 0.00 0.76 0.76 99 1009.7
20260505124308 57 143 2.0 6.0 0.00 0.76 0.76 99 1009.6
20260505123804 57 139 5.0 6.0 0.00 0.76 0.76 99 1009.7
20260505123301 57 134 7.0 11.0 0.00 0.76 0.76 99 1009.8
20260505122757 57 207 5.0 7.0 0.00 0.76 0.76 99 1009.6
20260505122255 57 238 1.0 3.0 0.00 0.76 0.76 99 1009.6
20260505121751 57 71 1.0 2.0 0.00 0.76 0.76 99 1009.8
20260505121248 57 156 4.0 7.0 0.00 0.76 0.76 99 1009.5
20260505120744 57 201 4.0 5.0 0.00 0.76 0.76 99 1009.3
20260505120240 57 83 7.0 8.0 0.00 0.76 0.76 99 1009.6
20260505115739 57 104 4.0 6.0 0.00 0.76 0.76 99 1009.9
20260505115237 57 296 0.0 1.0 0.00 0.76 0.76 99 1009.9
20260505114734 57 292 0.0 0.0 0.00 0.76 0.76 99 1009.9
20260505114230 57 254 1.0 1.0 0.00 0.76 0.76 99 1010.0
20260505113727 57 190 0.0 0.0 0.00 0.76 0.76 99 1009.9
20260505113223 57 291 1.0 1.0 0.00 0.76 0.76 99 1010.0
20260505112720 57 272 0.0 0.0 0.00 0.76 0.76 99 1010.0
20260505112218 57 289 0.0 0.0 0.00 0.76 0.76 99 1009.9
20260505111717 57 282 0.0 0.0 0.00 0.76 0.76 99 1010.1
20260505111214 57 270 0.0 0.0 0.00 0.76 0.76 99 1010.1
20260505110709 57 209 0.0 0.0 0.00 0.76 0.76 99 1009.7
20260505110207 57 273 0.0 0.0 0.00 0.76 0.76 99 1010.2
20260505102143 57 272 0.0 0.0 0.05 0.76 0.76 99 1009.8
20260505101641 57 143 1.0 1.0 0.05 0.76 0.76 99 1009.2
20260505101137 57 273 0.0 0.0 0.05 0.76 0.76 99 1009.7
20260505100633 57 299 2.0 2.0 0.07 0.75 0.75 99 1010.4
20260505100130 57 283 0.0 0.0 0.14 0.75 0.75 99 1009.9
20260505095627 57 224 0.0 1.0 0.07 0.74 0.74 99 1009.7
20260505095124 57 299 0.0 1.0 0.07 0.74 0.74 99 1010.3
20260505094620 57 291 0.0 0.0 0.05 0.73 0.73 99 1009.6
20260505094116 57 268 0.0 0.0 0.12 0.73 0.73 99 1009.1
20260505093612 57 262 0.0 0.0 0.19 0.72 0.72 99 1009.2
20260505093110 57 285 0.0 0.0 0.24 0.71 0.71 99 1009.7
20260505092607 57 302 0.0 1.0 1.25 0.69 0.69 99 1009.6
20260505092106 57 275 0.0 0.0 1.91 0.67 0.67 99 1009.5
20260505091602 57 316 3.0 5.0 1.25 0.50 0.50 99 1010.8
20260505091100 57 295 2.0 2.0 0.97 0.35 0.35 99 1010.7
20260505090558 57 325 4.0 5.0 0.59 0.28 0.28 99 1010.4
20260505090056 57 298 2.0 3.0 0.05 0.19 0.19 99 1009.7
20260505085553 57 195 2.0 3.0 0.12 0.18 0.18 99 1007.4
20260505085051 57 123 3.0 6.0 0.24 0.18 0.18 99 1007.3
20260505084549 57 177 3.0 5.0 0.17 0.17 0.17 98 1007.1
20260505084047 57 137 6.0 8.0 0.12 0.15 0.15 98 1008.2
20260505083544 57 269 1.0 2.0 0.19 0.14 0.14 97 1007.9
20260505083040 58 247 3.0 3.0 0.19 0.12 0.12 96 1008.4
20260505082536 58 224 3.0 5.0 0.24 0.11 0.11 97 1008.8
20260505082033 58 169 4.0 6.0 0.31 0.09 0.09 97 1008.7
20260505081529 58 239 0.0 1.0 0.17 0.06 0.06 96 1009.2
20260505081027 58 263 1.0 1.0 0.12 0.05 0.05 95 1009.0
20260505080523 59 189 3.0 3.0 0.12 0.04 0.04 94 1009.3
20260505080020 59 270 2.0 3.0 0.19 0.03 0.03 93 1009.3
20260505075516 60 248 3.0 5.0 0.07 0.01 0.01 91 1008.6
20260505075013 61 285 4.0 6.0 0.00 0.00 0.00 86 1008.6
20260505074510 60 151 3.0 5.0 0.00 0.00 0.00 85 1008.2
20260505074007 61 230 7.0 9.0 0.00 0.00 0.00 83 1008.2
20260505073504 62 216 5.0 7.0 0.00 0.00 0.00 80 1008.4
20260505073002 62 200 5.0 8.0 0.00 0.00 0.00 76 1008.6
20260505072458 63 179 7.0 9.0 0.00 0.00 0.00 76 1008.7
20260505071954 63 338 5.0 8.0 0.00 0.00 0.00 76 1008.5
20260505071450 63 149 5.0 7.0 0.00 0.00 0.00 76 1008.7
20260505070948 63 212 7.0 9.0 0.00 0.00 0.00 76 1008.9
20260505070445 63 257 6.0 9.0 0.00 0.00 0.00 76 1009.0
20260505065940 63 137 8.0 9.0 0.00 0.00 0.00 76 1009.3
20260505065437 63 333 2.0 3.0 0.00 0.00 0.00 76 1009.2
20260505064934 63 180 3.0 5.0 0.00 0.00 0.00 76 1009.2
20260505064431 63 153 7.0 9.0 0.00 0.00 0.00 76 1009.5
20260505063929 63 184 7.0 10.0 0.00 0.00 0.00 76 1009.6
20260505063425 63 227 5.0 7.0 0.00 0.00 0.00 76 1009.8
20260505062922 63 205 3.0 6.0 0.00 0.00 0.00 76 1010.0
20260505062419 63 271 3.0 3.0 0.00 0.00 0.00 76 1010.0
20260505061915 63 239 5.0 8.0 0.00 0.00 0.00 76 1009.8
20260505061414 63 118 7.0 9.0 0.00 0.00 0.00 76 1009.8
20260505060911 63 133 5.0 8.0 0.00 0.00 0.00 76 1009.7
20260505060408 63 172 9.0 11.0 0.00 0.00 0.00 76 1009.9
20260505055904 63 221 10.0 16.0 0.00 0.00 0.00 76 1010.0
20260505055400 63 41 4.0 7.0 0.00 0.00 0.00 76 1010.2
20260505054857 63 205 4.0 8.0 0.00 0.00 0.00 76 1009.9
20260505054354 63 150 5.0 7.0 0.00 0.00 0.00 76 1010.1
20260505053853 63 262 8.0 15.0 0.00 0.00 0.00 76 1010.1
20260505053350 63 168 5.0 8.0 0.00 0.00 0.00 77 1009.8
20260505052846 63 242 3.0 6.0 0.00 0.00 0.00 76 1010.2
20260505052343 63 189 2.0 3.0 0.00 0.00 0.00 76 1010.4
20260505051840 63 180 9.0 11.0 0.00 0.00 0.00 76 1010.3
20260505051337 63 135 0.0 0.0 0.00 0.00 0.00 76 1010.4
20260505050836 63 170 9.0 13.0 0.00 0.00 0.00 76 1010.4
20260505050334 63 97 6.0 9.0 0.00 0.00 0.00 76 1010.8
20260505041301 64 195 7.0 8.0 0.00 0.00 0.00 75 1010.9
20260505040758 64 168 4.0 10.0 0.00 0.00 0.00 75 1010.9
20260505040255 64 286 7.0 9.0 0.00 0.00 0.00 75 1011.3
20260505035752 64 184 4.0 5.0 0.00 0.00 0.00 75 1011.4
20260505035248 64 241 5.0 9.0 0.00 0.00 0.00 75 1011.3
20260505034745 64 293 2.0 2.0 0.00 0.00 0.00 75 1011.1
20260505034242 64 261 5.0 7.0 0.00 0.00 0.00 74 1011.2
20260505033738 64 174 2.0 5.0 0.00 0.00 0.00 75 1011.3
20260505033236 64 250 2.0 2.0 0.00 0.00 0.00 75 1011.1
20260505032734 64 157 8.0 13.0 0.00 0.00 0.00 75 1010.9
20260505032230 64 193 3.0 3.0 0.00 0.00 0.00 75 1011.2
20260505031728 64 262 2.0 2.0 0.00 0.00 0.00 75 1011.2
20260505031224 64 213 4.0 8.0 0.00 0.00 0.00 75 1011.3
20260505030721 64 179 5.0 6.0 0.00 0.00 0.00 75 1011.2
20260505030217 64 267 3.0 5.0 0.00 0.00 0.00 74 1011.1
20260505025713 64 229 1.0 2.0 0.00 0.00 0.00 74 1011.1
20260505025211 64 283 3.0 5.0 0.00 0.00 0.00 74 1011.2
20260505024709 64 191 3.0 6.0 0.00 0.00 0.00 74 1011.1
20260505024206 64 144 5.0 7.0 0.00 0.00 0.00 74 1010.8
20260505023703 64 128 5.0 9.0 0.00 0.00 0.00 74 1010.6
20260505023200 64 166 3.0 5.0 0.00 0.00 0.00 74 1010.6
20260505022658 64 148 7.0 13.0 0.00 0.00 0.00 73 1010.5
20260505022154 64 180 7.0 11.0 0.00 0.00 0.00 73 1010.5
20260505021651 64 248 6.0 10.0 0.00 0.00 0.00 73 1010.4
20260505021148 64 161 2.0 2.0 0.00 0.00 0.00 73 1010.4
20260505020643 64 263 3.0 5.0 0.00 0.00 0.00 73 1010.4
20260505020140 64 189 5.0 6.0 0.00 0.00 0.00 72 1010.4
20260505015637 64 163 3.0 3.0 0.00 0.00 0.00 73 1010.3
20260505015133 64 202 5.0 7.0 0.00 0.00 0.00 72 1010.4
20260505014630 65 259 8.0 11.0 0.00 0.00 0.00 71 1010.2
20260505014127 64 265 2.0 2.0 0.00 0.00 0.00 72 1010.4
20260505013625 65 281 3.0 6.0 0.00 0.00 0.00 72 1010.1
20260505013122 65 203 3.0 5.0 0.00 0.00 0.00 71 1010.2
20260505012620 65 233 8.0 11.0 0.00 0.00 0.00 71 1010.2
20260505012111 65 217 5.0 7.0 0.00 0.00 0.00 71 1010.0
20260505011607 65 90 7.0 11.0 0.00 0.00 0.00 71 1010.0
20260505011105 65 194 4.0 10.0 0.00 0.00 0.00 72 1010.2
20260505010604 65 173 3.0 5.0 0.00 0.00 0.00 71 1010.1
20260505005557 65 211 5.0 9.0 0.00 0.00 0.00 70 1010.1
20260505005055 65 137 7.0 9.0 0.00 0.00 0.00 71 1009.9
20260505004552 65 251 7.0 8.0 0.00 0.00 0.00 71 1010.0
20260505004049 66 315 5.0 7.0 0.00 0.00 0.00 70 1009.9
20260505003546 66 213 6.0 11.0 0.00 0.00 0.00 70 1009.9
20260505003044 66 253 7.0 8.0 0.00 0.00 0.00 70 1009.9
20260505002543 66 134 9.0 15.0 0.00 0.00 0.00 69 1010.1
20260505002037 66 228 6.0 8.0 0.00 0.00 0.00 69 1010.0
20260505001534 67 147 7.0 11.0 0.00 0.00 0.00 68 1009.8
20260505001031 67 210 3.0 5.0 0.00 0.00 0.00 68 1010.0
20260505000528 67 135 4.0 7.0 0.00 0.00 0.00 67 1010.3
20260505000026 67 31 5.0 8.0 0.00 0.00 0.00 67 1010.1
20260504235522 68 259 3.0 3.0 0.00 0.00 0.00 67 1010.2
20260504235019 68 74 11.0 15.0 0.00 0.00 0.00 65 1009.8
20260504234516 68 232 2.0 2.0 0.00 0.00 0.00 64 1010.0
20260504234013 68 154 7.0 9.0 0.00 0.00 0.00 64 1010.2
20260504233508 68 167 4.0 7.0 0.00 0.00 0.00 65 1010.1
20260504233005 69 166 3.0 5.0 0.00 0.00 0.00 64 1010.2
20260504232502 69 139 6.0 10.0 0.00 0.00 0.00 64 1009.9
20260504232000 69 157 6.0 9.0 0.00 0.00 0.00 64 1010.2
20260504231457 69 217 5.0 8.0 0.00 0.00 0.00 64 1010.4
20260504230953 69 188 5.0 7.0 0.00 0.00 0.00 64 1010.2
20260504230450 69 151 3.0 3.0 0.00 0.00 0.00 64 1010.4
20260504225949 69 217 3.0 6.0 0.00 0.00 0.00 64 1010.6
20260504225445 69 166 4.0 9.0 0.00 0.00 0.00 62 1010.5
20260504224942 69 192 4.0 6.0 0.00 0.00 0.00 63 1010.7
20260504224439 69 180 4.0 9.0 0.00 0.00 0.00 62 1010.5
20260504223936 69 110 5.0 7.0 0.00 0.00 0.00 62 1010.7
20260504223431 69 230 7.0 10.0 0.00 0.00 0.00 62 1010.8
20260504222927 70 271 2.0 3.0 0.00 0.00 0.00 62 1010.8
20260504222425 70 234 3.0 5.0 0.00 0.00 0.00 62 1010.7
20260504221923 70 230 4.0 5.0 0.00 0.00 0.00 61 1010.6
20260504221419 70 205 5.0 6.0 0.00 0.00 0.00 61 1010.8
20260504220916 71 168 5.0 8.0 0.00 0.00 0.00 60 1010.8
20260504220413 71 206 5.0 8.0 0.00 0.00 0.00 61 1011.3
20260504215910 71 194 9.0 14.0 0.00 0.00 0.00 60 1011.1
20260504215407 71 243 3.0 5.0 0.00 0.00 0.00 60 1011.1
20260504214903 71 274 3.0 5.0 0.00 0.00 0.00 60 1010.9
20260504214400 71 175 4.0 5.0 0.00 0.00 0.00 59 1011.2
20260504213856 71 287 6.0 9.0 0.00 0.00 0.00 59 1011.2
20260504213352 71 188 4.0 8.0 0.00 0.00 0.00 59 1011.2
20260504212850 72 236 4.0 5.0 0.00 0.00 0.00 56 1011.5
20260504212346 72 294 4.0 6.0 0.00 0.00 0.00 57 1011.6
20260504211844 72 216 3.0 3.0 0.00 0.00 0.00 57 1011.6
20260504211339 72 98 4.0 8.0 0.00 0.00 0.00 58 1011.5
20260504210837 72 233 8.0 11.0 0.00 0.00 0.00 55 1011.5
20260504210334 73 184 3.0 5.0 0.00 0.00 0.00 56 1011.4
20260504205831 72 292 7.0 10.0 0.00 0.00 0.00 56 1011.5
20260504205329 73 152 7.0 14.0 0.00 0.00 0.00 55 1011.6
20260504204827 74 242 1.0 1.0 0.00 0.00 0.00 54 1011.4
20260504204325 74 134 6.0 9.0 0.00 0.00 0.00 54 1011.4
20260504203824 73 123 3.0 5.0 0.00 0.00 0.00 57 1011.8
20260504203321 73 272 1.0 2.0 0.00 0.00 0.00 56 1011.8
20260504202817 73 320 5.0 6.0 0.00 0.00 0.00 56 1011.9
20260504202314 72 239 1.0 2.0 0.00 0.00 0.00 56 1012.2
20260504201810 72 90 5.0 8.0 0.00 0.00 0.00 56 1012.1
20260504201308 72 287 4.0 7.0 0.00 0.00 0.00 55 1012.3
20260504200805 72 256 5.0 7.0 0.00 0.00 0.00 57 1012.1
20260504200301 71 156 5.0 9.0 0.00 0.00 0.00 57 1011.9
20260504195757 73 169 15.0 21.0 0.00 0.00 0.00 56 1012.1
20260504195253 73 256 2.0 2.0 0.00 0.00 0.00 56 1012.1
20260504194751 74 269 3.0 6.0 0.00 0.00 0.00 56 1012.1
20260504194247 74 215 4.0 5.0 0.00 0.00 0.00 56 1012.3
20260504193743 73 294 2.0 3.0 0.00 0.00 0.00 55 1012.3
20260504193241 74 311 4.0 11.0 0.00 0.00 0.00 55 1012.2
20260504192739 75 263 3.0 5.0 0.00 0.00 0.00 58 1012.5
20260504192236 73 290 2.0 2.0 0.00 0.00 0.00 56 1012.4
20260504191735 73 264 2.0 3.0 0.00 0.00 0.00 56 1012.4
20260504191231 73 154 3.0 7.0 0.00 0.00 0.00 57 1012.9
20260504190727 73 245 4.0 5.0 0.00 0.00 0.00 55 1013.0
20260504190224 73 275 2.0 2.0 0.00 0.00 0.00 58 1012.8
20260504185720 73 293 1.0 2.0 0.00 0.00 0.00 56 1012.7
20260504185217 74 316 0.0 1.0 0.00 0.00 0.00 56 1012.8
20260504184713 73 215 3.0 5.0 0.00 0.00 0.00 55 1012.9
20260504184209 73 274 2.0 2.0 0.00 0.00 0.00 55 1013.1
20260504183705 72 191 1.0 1.0 0.00 0.00 0.00 59 1012.8
20260504183202 71 121 10.0 15.0 0.00 0.00 0.00 58 1012.9
20260504182700 71 232 6.0 8.0 0.00 0.00 0.00 58 1013.3
20260504182157 72 206 2.0 2.0 0.00 0.00 0.00 59 1013.2
20260504181655 72 282 5.0 8.0 0.00 0.00 0.00 59 1013.4
20260504181152 71 173 7.0 10.0 0.00 0.00 0.00 60 1013.2
20260504180651 73 168 7.0 11.0 0.00 0.00 0.00 57 1013.2
20260504180149 72 259 2.0 3.0 0.00 0.00 0.00 57 1013.1
20260504175646 71 3 3.0 3.0 0.00 0.00 0.00 58 1013.3
20260504175143 71 285 3.0 3.0 0.00 0.00 0.00 57 1013.2
20260504174641 72 84 1.0 3.0 0.00 0.00 0.00 58 1013.5
20260504174137 73 262 3.0 5.0 0.00 0.00 0.00 58 1013.5
20260504173635 72 213 2.0 3.0 0.00 0.00 0.00 57 1013.6
20260504173132 72 238 2.0 3.0 0.00 0.00 0.00 58 1013.5
20260504172628 71 295 5.0 7.0 0.00 0.00 0.00 56 1013.7
20260504172126 71 222 5.0 10.0 0.00 0.00 0.00 57 1013.7
20260504171622 70 234 5.0 8.0 0.00 0.00 0.00 57 1013.8
20260504171119 71 180 4.0 6.0 0.00 0.00 0.00 57 1013.9
20260504170615 72 131 9.0 16.0 0.00 0.00 0.00 55 1014.0
20260504170113 72 211 3.0 5.0 0.00 0.00 0.00 56 1013.7
20260504150958 68 220 1.0 2.0 0.00 0.00 0.00 59 1014.5
20260504150455 68 337 3.0 5.0 0.00 0.00 0.00 59 1014.5
20260504140921 65 260 3.0 3.0 0.00 0.00 0.00 61 1014.9
20260504140418 65 243 5.0 7.0 0.00 0.00 0.00 61 1015.1
20260504130344 62 359 5.0 10.0 0.00 0.00 0.00 64 1014.7